TimeCDT,TemperatureF,Dew PointF,Humidity,Sea Level PressureIn,VisibilityMPH,Wind Direction,Wind SpeedMPH,Gust SpeedMPH,PrecipitationIn,Events,Conditions,WindDirDegrees,DateUTC
12:15 AM,72.0,63.9,76,29.94,10.0,Calm,Calm,-,N/A,,Mostly Cloudy,0,2013-09-08 05:15:00
12:35 AM,71.4,63.9,77,29.95,10.0,Calm,Calm,-,N/A,,Mostly Cloudy,0,2013-09-08 05:35:00
12:55 AM,72.7,64.4,75,29.95,10.0,Calm,Calm,-,N/A,,Mostly Cloudy,0,2013-09-08 05:55:00
1:15 AM,73.4,63.1,70,29.96,10.0,Calm,Calm,-,N/A,,Scattered Clouds,0,2013-09-08 06:15:00
1:35 AM,73.8,63.0,69,29.96,10.0,North,3.5,-,N/A,,Scattered Clouds,10,2013-09-08 06:35:00
1:55 AM,74.1,63.7,70,29.95,10.0,North,4.6,-,N/A,,Mostly Cloudy,10,2013-09-08 06:55:00
2:15 AM,73.4,64.9,75,29.96,10.0,North,3.5,-,N/A,,Scattered Clouds,10,2013-09-08 07:15:00
2:35 AM,72.5,66.2,81,29.96,10.0,North,4.6,-,N/A,,Clear,360,2013-09-08 07:35:00
2:55 AM,72.0,66.7,84,29.96,10.0,NNE,4.6,-,N/A,,Clear,20,2013-09-08 07:55:00
3:15 AM,71.6,66.6,84,29.96,7.0,North,4.6,-,N/A,,Clear,10,2013-09-08 08:15:00
3:35 AM,71.4,66.2,84,29.96,10.0,North,6.9,-,N/A,,Clear,10,2013-09-08 08:35:00
3:55 AM,71.2,66.2,84,29.97,10.0,NNE,3.5,-,N/A,,Clear,20,2013-09-08 08:55:00
4:15 AM,71.1,66.0,84,29.97,10.0,NNE,5.8,-,N/A,,Clear,20,2013-09-08 09:15:00
4:35 AM,70.9,66.2,85,29.97,10.0,NNE,8.1,-,N/A,,Mostly Cloudy,30,2013-09-08 09:35:00
4:55 AM,70.9,66.2,85,29.98,10.0,NE,9.2,-,N/A,,Overcast,40,2013-09-08 09:55:00
5:15 AM,70.7,65.5,83,29.97,10.0,NE,10.4,-,N/A,,Mostly Cloudy,40,2013-09-08 10:15:00
5:35 AM,70.7,66.2,86,29.99,10.0,NNE,6.9,-,N/A,,Mostly Cloudy,30,2013-09-08 10:35:00
5:55 AM,70.7,65.8,85,29.99,7.0,NE,10.4,-,N/A,,Overcast,40,2013-09-08 10:55:00
6:15 AM,70.7,66.4,86,29.99,7.0,NE,4.6,-,N/A,,Overcast,40,2013-09-08 11:15:00
6:35 AM,70.7,66.4,86,30.00,7.0,NE,6.9,-,N/A,,Overcast,50,2013-09-08 11:35:00
6:55 AM,70.7,66.6,87,30.00,5.0,NE,9.2,-,N/A,,Overcast,40,2013-09-08 11:55:00
7:15 AM,70.7,66.6,87,30.01,7.0,NE,8.1,-,N/A,,Overcast,50,2013-09-08 12:15:00
7:35 AM,70.9,66.7,87,30.01,7.0,ENE,3.5,-,N/A,,Overcast,60,2013-09-08 12:35:00
7:55 AM,71.2,66.6,85,30.00,7.0,NE,3.5,-,N/A,,Overcast,50,2013-09-08 12:55:00
8:15 AM,71.6,66.4,84,30.01,7.0,ENE,5.8,-,N/A,,Overcast,60,2013-09-08 13:15:00
8:35 AM,71.8,66.2,83,30.01,7.0,ENE,6.9,-,N/A,,Overcast,60,2013-09-08 13:35:00
8:55 AM,72.1,66.4,82,30.01,7.0,NE,8.1,-,N/A,,Overcast,50,2013-09-08 13:55:00
9:15 AM,72.9,66.2,80,30.01,7.0,ENE,8.1,-,N/A,,Overcast,60,2013-09-08 14:15:00
9:35 AM,73.0,66.2,79,30.01,7.0,ENE,4.6,-,N/A,,Overcast,70,2013-09-08 14:35:00
9:55 AM,74.8,66.4,75,30.01,10.0,ENE,3.5,-,N/A,,Mostly Cloudy,70,2013-09-08 14:55:00
10:15 AM,76.3,66.7,72,30.01,10.0,Calm,Calm,-,N/A,,Scattered Clouds,0,2013-09-08 15:15:00
10:35 AM,75.6,66.2,73,30.01,10.0,ENE,3.5,-,N/A,,Mostly Cloudy,70,2013-09-08 15:35:00
10:55 AM,77.4,66.7,70,30.01,10.0,Calm,Calm,-,N/A,,Overcast,0,2013-09-08 15:55:00
11:15 AM,78.6,66.9,67,30.01,10.0,Calm,Calm,-,N/A,,Mostly Cloudy,0,2013-09-08 16:15:00
11:35 AM,80.6,66.4,62,30.00,10.0,East,8.1,-,N/A,,Scattered Clouds,80,2013-09-08 16:35:00
11:55 AM,81.1,66.2,60,30.00,10.0,NE,6.9,-,N/A,,Scattered Clouds,40,2013-09-08 16:55:00
12:15 PM,81.0,65.7,60,30.01,10.0,NE,5.8,-,N/A,,Mostly Cloudy,50,2013-09-08 17:15:00
12:35 PM,78.6,66.6,66,30.01,10.0,NNE,9.2,-,N/A,,Overcast,20,2013-09-08 17:35:00
12:55 PM,80.2,66.7,63,30.01,10.0,ENE,9.2,-,N/A,,Overcast,60,2013-09-08 17:55:00
1:15 PM,78.3,66.6,67,30.01,10.0,NE,6.9,-,N/A,,Overcast,40,2013-09-08 18:15:00
1:35 PM,81.1,66.9,62,30.01,10.0,NE,10.4,-,N/A,,Mostly Cloudy,40,2013-09-08 18:35:00
1:55 PM,79.5,66.7,65,30.00,10.0,NE,9.2,-,N/A,,Mostly Cloudy,50,2013-09-08 18:55:00
2:15 PM,80.2,66.4,63,30.00,10.0,ENE,10.4,-,N/A,,Mostly Cloudy,60,2013-09-08 19:15:00
2:35 PM,80.6,66.2,61,29.99,10.0,NE,9.2,-,N/A,,Mostly Cloudy,40,2013-09-08 19:35:00
2:55 PM,79.3,66.4,64,29.98,10.0,NE,9.2,-,N/A,,Mostly Cloudy,40,2013-09-08 19:55:00
3:15 PM,79.7,65.8,62,29.98,10.0,East,6.9,-,N/A,,Overcast,80,2013-09-08 20:15:00
3:35 PM,79.3,65.7,63,29.98,10.0,ESE,8.1,-,N/A,,Overcast,120,2013-09-08 20:35:00
3:55 PM,78.8,65.7,64,29.98,10.0,East,6.9,-,N/A,,Overcast,100,2013-09-08 20:55:00
4:15 PM,79.9,65.3,61,29.97,10.0,East,8.1,-,N/A,,Mostly Cloudy,80,2013-09-08 21:15:00
4:35 PM,79.3,65.3,62,29.97,10.0,East,8.1,-,N/A,,Mostly Cloudy,90,2013-09-08 21:35:00
4:55 PM,78.1,65.7,65,29.97,10.0,NNE,5.8,-,N/A,,Mostly Cloudy,30,2013-09-08 21:55:00
5:15 PM,77.5,66.2,68,29.96,10.0,NNE,8.1,-,N/A,,Mostly Cloudy,30,2013-09-08 22:15:00
5:35 PM,77.2,66.2,69,29.96,10.0,NE,8.1,-,N/A,,Mostly Cloudy,50,2013-09-08 22:35:00
5:55 PM,77.2,66.2,69,29.96,10.0,NE,5.8,-,N/A,,Mostly Cloudy,50,2013-09-08 22:55:00
6:15 PM,77.4,65.7,67,29.96,10.0,East,5.8,-,N/A,,Mostly Cloudy,90,2013-09-08 23:15:00
6:35 PM,76.1,65.1,69,29.96,10.0,East,11.5,-,N/A,,Scattered Clouds,90,2013-09-08 23:35:00
6:55 PM,75.2,64.8,70,29.96,10.0,East,9.2,-,N/A,,Clear,100,2013-09-08 23:55:00
7:15 PM,73.9,64.4,72,29.96,10.0,ESE,10.4,-,N/A,,Clear,110,2013-09-09 00:15:00
7:35 PM,73.0,64.2,74,29.97,10.0,East,8.1,-,N/A,,Clear,100,2013-09-09 00:35:00
7:55 PM,72.5,64.4,76,29.97,10.0,East,5.8,-,N/A,,Clear,100,2013-09-09 00:55:00
8:15 PM,72.0,64.4,77,29.98,10.0,East,4.6,-,N/A,,Clear,90,2013-09-09 01:15:00
8:35 PM,71.6,64.4,78,29.98,10.0,East,5.8,-,N/A,,Clear,100,2013-09-09 01:35:00
8:55 PM,71.1,64.4,79,29.98,10.0,ESE,5.8,-,N/A,,Clear,110,2013-09-09 01:55:00
9:15 PM,70.9,63.9,78,29.97,10.0,ESE,8.1,-,N/A,,Clear,120,2013-09-09 02:15:00
9:35 PM,70.9,63.7,78,29.97,10.0,ESE,5.8,-,N/A,,Clear,120,2013-09-09 02:35:00
9:55 PM,70.7,63.5,78,29.97,10.0,ESE,6.9,-,N/A,,Clear,120,2013-09-09 02:55:00
10:15 PM,70.7,63.5,78,29.97,10.0,SE,6.9,-,N/A,,Clear,130,2013-09-09 03:15:00
10:35 PM,70.9,63.3,77,29.98,7.0,SE,8.1,-,N/A,,Clear,130,2013-09-09 03:35:00
10:55 PM,71.1,63.5,77,29.98,7.0,SE,6.9,-,N/A,,Clear,130,2013-09-09 03:55:00
11:15 PM,70.7,63.3,77,29.99,7.0,SE,6.9,-,N/A,,Clear,130,2013-09-09 04:15:00
11:35 PM,70.3,63.1,78,29.98,7.0,SE,6.9,-,N/A,,Clear,130,2013-09-09 04:35:00
11:55 PM,70.2,63.0,78,29.99,10.0,SE,9.2,-,N/A,,Clear,140,2013-09-09 04:55:00